Ekvtime Takaishvili

Georgia     41˚38′28″N   41˚37′43″E
temp.,
°C
wind,
m/s
gust,
m/s
humid.,
%
clouds,
%
prec.,
mm/h
press.,
hPa
HPBL,
m
28 november, sat
sat2801:00+8˚ese33510 0.0 102889
04:00+8˚ese33490 0.0 102888
07:00+7˚se22460 0.0 102779
10:00+9˚ese22470 0.0 1027107
13:00+14˚n22460 0.0 1024225
16:00+14˚n12590 0.0 1023123
19:00+10˚ese33550 0.0 102573
22:00+9˚se34420 0.0 102688
29 november, sun
sun2901:00+8˚ese33420 0.0 102673
04:00+8˚ese33430 0.0 102664
07:00+8˚ese32440 0.0 102560
10:00+10˚ese22450 0.0 102576
13:00+14˚nnw11440 0.0 1023182
16:00+13˚n11530 0.0 1022101
19:00+11˚se22550 0.0 102344
22:00+10˚ese22540 0.0 102346
30 november, mon
mon3001:00+9˚ese22510 0.0 102351
04:00+9˚ese22500 0.0 102253
07:00+9˚ese22520 0.0 102156
10:00+11˚se22510 0.0 102181
13:00+14˚nw11490 0.0 1019206
16:00+13˚nne11560 0.0 1018110
19:00+11˚se22630 0.0 101943
22:00+10˚se22550 0.0 102055
1 december, tue
tue101:00+10˚ese335228 0.0 102068
04:00+9˚ese335032 0.0 102077
07:00+9˚ese335092 0.0 102077
10:00+10˚ese234995 0.0 102094
13:00+15˚n1146100 0.0 1019213
16:00+14˚n1161100 0.0 101972
19:00+12˚se2258100 0.0 102042
22:00+10˚se2254100 0.0 102260
2 december, wed
wed201:00+10˚ese2249100 0.0 102264
04:00+10˚ese2248100 0.0 102257
07:00+9˚ese225174 0.0 102253
10:00+11˚se125270 0.0 102268
13:00+14˚nnw215227 0.0 1021244
16:00+13˚n115414 0.0 1020159
19:00+11˚ese11630 0.0 102242
22:00+10˚ese22610 0.0 102345